Regional Weather Roundup
Issued by NWS

Home | Current Version | Previous Version | Graphics & Text | Print | Product List | Glossary On
Versions: 1 2 3 4 5 6 7 8 9 10 11 12 13 14 15 16 17 18 19 20 21 22 23 24 25 26 27 28 29 30 31 32 33 34 35 36 37 38 39 40 41 42 43 44 45 46 47 48 49 50
000
ASUS45 KBOU 212107
RWRCO

WEATHER ROUNDUP FOR COLORADO
NATIONAL WEATHER SERVICE DENVER/BOULDER CO
300 PM MDT THU MAY 21 2015

NOTE: "FAIR" INDICATES FEW OR NO CLOUDS BELOW 12000 FEET WITH NO
SIGNIFICANT WEATHER AND/OR OBSTRUCTIONS TO VISIBILITY.

COZ001>005-013-030-031-212200-
...NORTHWEST COLORADO...

CITY           SKY/WX    TMP DP  RH WIND       PRES   REMARKS
CRAIG          PTSUNNY   65  39  38 E15       30.03F
HAYDEN         CLOUDY    61  36  39 N15       30.05F
MEEKER         CLOUDY    65  35  33 E5        30.00F
MOUNT WERNER   NOT AVBL
STEAMBOAT SPGS CLOUDY    58  34  39 N3        30.08S
WALDEN         CLOUDY    52  34  50 E12G17    30.15F
$$

COZ006>008-011-212200-
...WEST CENTRAL VALLEYS...

CITY           SKY/WX    TMP DP  RH WIND       PRES   REMARKS
GRAND JUNCTION CLOUDY    70  37  29 SE22G30   29.92F
MONTROSE       CLOUDY    68  31  25 SW7       30.00F
EAGLE          PTSUNNY   66  28  24 CALM      30.03F
RIFLE          CLOUDY    69  32  25 CALM      29.96F
DELTA          CLOUDY    74  33  21 SE5       29.96F
NUCLA          CLOUDY    68  32  26 SE3       30.00F
$$

COZ017>023-064>068-212200-
...SOUTHWEST COLORADO...

CITY           SKY/WX    TMP DP  RH WIND       PRES   REMARKS
DURANGO        MOSUNNY   66  32  28 S15G23    30.04F
CORTEZ         MOSUNNY   70  36  28 MISG      29.98F
PAGOSA SPRINGS PTSUNNY   64  28  25 S8G17     30.11F
TELLURIDE      CLOUDY    53  23  31 W5G23     30.15S
WOLF CREEK PAS NOT AVBL
$$

COZ009-010-012-014-032>034-037-058>063-212200-
...CENTRAL COLORADO...

CITY           SKY/WX    TMP DP  RH WIND       PRES   REMARKS
ASPEN          CLOUDY    62  25  24 W12G25    30.07F
BUENA VISTA    CLOUDY    53  40  61 W9        30.17F
COPPER MTN     CLOUDY    45  25  45 SE10      30.32F
BERTHOUD PASS  PTSUNNY   30  23  74 SE18      30.37F WCI  18
COTTONWOOD PAS LGT RAIN  43  36  75 NW8       30.25F
GUNNISON       CLOUDY    59  34  38 SE13G18   30.11F
KREMMLING      CLOUDY    61  30  31 E21G28    30.10S
LEADVILLE      CLOUDY    50  24  36 S10       30.20F
SALIDA         CLOUDY    58  42  54 E13       30.20F
SUNLIGHT       CLOUDY    50  27  40 CALM      30.26F
WILKERSON PASS CLOUDY    43  32  65 S7        30.34F
$$

COZ069>075-212200-
...SAN LUIS VALLEY/SANGRE DE CRISTO MOUNTAINS...

CITY           SKY/WX    TMP DP  RH WIND       PRES   REMARKS
ALAMOSA        CLOUDY    64  31  28 SE6       30.09F
LA VETA PASS   FOG      N/A N/A N/A MISG      30.28F VSB 1/4
SAGUACHE       PTSUNNY   61  37  41 S7        30.14F
$$

COZ035-036-038>040-212200-
...NORTHERN COLORADO FRONT RANGE...

CITY           SKY/WX    TMP DP  RH WIND       PRES   REMARKS
DENVER INTL AP CLOUDY    53  43  68 NW12      30.15F
DMNS CITY PARK   N/A     51  40  67 NE5G10    30.14F
AURORA         CLOUDY    52  42  69 N10       30.16F
FRONT RANGE AP CLOUDY    57  46  67 NW12      30.15F
ERIE MUNI ARPT CLOUDY    50  42  72 N3        30.15F
BOULDER MUN AP CLOUDY    50  43  76 W5        30.15F
CENTENNIAL     CLOUDY    53  43  68 N10       30.15F
BROOMFIELD     CLOUDY    48  41  76 N5        30.17F
FORT COLLINS   CLOUDY    52  43  71 S3        30.17F
LONGMONT       CLOUDY    55  42  61 N5        30.16F
$$

COZ041-046-047-076>085-087-088-212200-
...PIKES PEAK/PALMER DIVIDE AND SOUTHERN FOOTHILLS...

CITY           SKY/WX    TMP DP  RH WIND       PRES   REMARKS
COLO. SPRINGS  CLOUDY    46  43  89 S12       30.20F
A. F. ACADEMY  CLOUDY    44  43  99 S9        30.18F
ELLICOTT       NOT AVBL
FALCON         CLOUDY    44  41  89 S12       30.21F
FORT CARSON    CLOUDY    46  46  99 S7        30.18F
LIMON          CLOUDY    50  43  77 S18       30.18F
MONUMENT HILL  NOT AVBL
TRINIDAD       CLOUDY    54  46  74 E7        30.17F
$$

COZ042>045-048>051-090-091-212200-
...NORTHEAST COLORADO...

CITY           SKY/WX    TMP DP  RH WIND       PRES   REMARKS
GREELEY ARPT   CLOUDY    54  43  66 NW3       30.16F
AKRON          CLOUDY    54  45  71 SE15      30.19F
BURLINGTON     CLOUDY    55  44  66 SE16      30.22F
WRAY           CLOUDY    62  44  52 S12G20    30.22F
STERLING       CLOUDY    57  45  62 SE13G20   30.17F
HOLYOKE        NOT AVBL
FORT MORGAN    CLOUDY    57  44  60 S13       30.17F
$$

COZ086-089-092>099-212200-
...SOUTHEAST COLORADO...

CITY           SKY/WX    TMP DP  RH WIND       PRES   REMARKS
PUEBLO         CLOUDY    51  45  79 SE6       30.17F
LA JUNTA       CLOUDY    58  47  66 E15       30.16F
LAMAR          CLOUDY    59  46  62 SE15G23   30.18F
SPRINGFIELD      N/A     52  44  74 S13       30.21F
$$


USA.gov is the U.S. government's official web portal to all federal, state and local government web resources and services.